Main page
METAR-TAF:

METAR-TAF

Airports :

Calais–Dunkerque Airport

Calais, France

latitude: 50-57-39N, longitude: 001-57-05E, elevation: 4 m

Current weather observation

The report was made 10 minutes ago, at 08:00 UTC
Wind 4 kt from the North/Northwest, varying between West and Northeast
Temperature 15°C
Humidity 72%
Pressure 1019 hPa
Visibility 10 km or more
Few clouds at a height of 1700 ft

METAR: LFAC 240800Z AUTO 34004KT 270V050 9999 FEW017 15/10 Q1019

Time: 10:10 (08:10 UTC)


TAF: missing

Weather observations and forecasts of more than 4000 airports (METAR and TAF reports).

The available stations are represented by yellow and red dots on the map.

Hover mouse over dot to see the name of the station.

Then click to see weather observations and forecasts.

To change the map : click on the green buttons with a black cross to zoom in, on the green button with a dash to zoom out, or on the green arrows for adjacent maps.


METAR-TAF: